Time,TemperatureF,DewpointF,PressureIn,WindDirection,WindDirectionDegrees,WindSpeedMPH,WindSpeedGustMPH,Humidity,HourlyPrecipIn,Conditions,Clouds,dailyrainin,SolarRadiationWatts/m^2,SoftwareType,DateUTC
2013-09-10 00:01:00,72.5,69.4,30.07,East,101,0.0,0.0,90,0.00,,,0.00,0.00,VWS V14.01,2013-09-10 04:01:00,
2013-09-10 00:02:00,72.5,69.4,30.07,East,101,0.0,0.0,90,0.00,,,0.00,0.00,VWS V14.01,2013-09-10 04:02:00,
2013-09-10 00:07:00,72.5,69.4,30.07,East,101,0.0,0.0,90,0.00,,,0.00,0.00,VWS V14.01,2013-09-10 04:07:00,
2013-09-10 00:12:00,72.5,69.4,30.07,East,101,0.0,0.0,90,0.00,,,0.00,0.00,VWS V14.01,2013-09-10 04:12:00,
2013-09-10 00:17:00,72.3,69.2,30.07,East,101,0.0,0.0,90,0.00,,,0.00,0.00,VWS V14.01,2013-09-10 04:17:00,
2013-09-10 00:22:00,72.3,69.2,30.07,East,101,0.0,0.0,90,0.00,,,0.00,0.00,VWS V14.01,2013-09-10 04:22:00,
2013-09-10 00:27:00,72.1,69.0,30.07,East,101,0.0,0.0,90,0.00,,,0.00,0.00,VWS V14.01,2013-09-10 04:27:00,
2013-09-10 00:32:00,72.1,69.0,30.08,East,101,0.0,0.0,90,0.00,,,0.00,0.00,VWS V14.01,2013-09-10 04:32:00,
2013-09-10 00:37:00,72.0,68.9,30.08,East,101,0.0,0.0,90,0.00,,,0.00,0.00,VWS V14.01,2013-09-10 04:37:00,
2013-09-10 00:42:00,72.0,68.9,30.08,East,101,0.0,0.0,90,0.00,,,0.00,0.00,VWS V14.01,2013-09-10 04:42:00,
2013-09-10 00:47:00,71.8,68.7,30.08,East,101,0.0,0.0,90,0.00,,,0.00,0.00,VWS V14.01,2013-09-10 04:47:00,
2013-09-10 00:52:00,71.8,69.0,30.08,East,101,0.0,0.0,91,0.00,,,0.00,0.00,VWS V14.01,2013-09-10 04:52:00,
2013-09-10 00:57:00,71.6,68.8,30.08,East,101,0.0,0.0,91,0.00,,,0.00,0.00,VWS V14.01,2013-09-10 04:57:00,
2013-09-10 01:02:00,71.6,68.8,30.08,East,101,0.0,0.0,91,0.00,,,0.00,0.00,VWS V14.01,2013-09-10 05:02:00,
2013-09-10 01:07:00,71.6,68.8,30.08,East,101,0.0,0.0,91,0.00,,,0.00,0.00,VWS V14.01,2013-09-10 05:07:00,
2013-09-10 01:12:00,71.6,68.8,30.08,East,101,0.0,0.0,91,0.00,,,0.00,0.00,VWS V14.01,2013-09-10 05:12:00,
2013-09-10 01:17:00,71.6,68.8,30.08,East,101,0.0,0.0,91,0.00,,,0.00,0.00,VWS V14.01,2013-09-10 05:17:00,
2013-09-10 01:22:00,71.1,68.3,30.08,East,101,0.0,0.0,91,0.00,,,0.00,0.00,VWS V14.01,2013-09-10 05:22:00,
2013-09-10 01:27:00,71.1,68.7,30.08,East,101,0.0,0.0,92,0.00,,,0.00,0.00,VWS V14.01,2013-09-10 05:27:00,
2013-09-10 01:32:00,70.9,68.5,30.08,East,101,0.0,0.0,92,0.00,,,0.00,0.00,VWS V14.01,2013-09-10 05:32:00,
2013-09-10 01:37:00,70.9,68.5,30.08,East,101,0.0,0.0,92,0.00,,,0.00,0.00,VWS V14.01,2013-09-10 05:37:00,
2013-09-10 01:42:00,70.8,68.4,30.08,East,101,0.0,0.0,92,0.00,,,0.00,0.00,VWS V14.01,2013-09-10 05:42:00,
2013-09-10 01:46:00,70.8,68.4,30.08,East,101,0.0,0.0,92,0.00,,,0.00,0.00,VWS V14.01,2013-09-10 05:46:00,
2013-09-10 01:51:00,70.8,68.4,30.08,East,101,0.0,0.0,92,0.00,,,0.00,0.00,VWS V14.01,2013-09-10 05:51:00,
2013-09-10 01:56:00,70.6,68.2,30.08,East,101,0.0,0.0,92,0.00,,,0.00,0.00,VWS V14.01,2013-09-10 05:56:00,
2013-09-10 02:01:00,70.6,68.2,30.09,East,101,0.0,0.0,92,0.00,,,0.00,0.00,VWS V14.01,2013-09-10 06:01:00,
2013-09-10 02:06:00,70.6,68.2,30.09,East,101,0.0,0.0,92,0.00,,,0.00,0.00,VWS V14.01,2013-09-10 06:06:00,
2013-09-10 02:11:00,70.6,68.2,30.09,East,101,0.0,0.0,92,0.00,,,0.00,0.00,VWS V14.01,2013-09-10 06:11:00,
2013-09-10 02:16:00,70.6,68.2,30.09,East,101,0.0,0.0,92,0.00,,,0.00,0.00,VWS V14.01,2013-09-10 06:16:00,
2013-09-10 02:21:00,70.1,68.0,30.09,East,101,0.0,0.0,93,0.00,,,0.00,0.00,VWS V14.01,2013-09-10 06:21:00,
2013-09-10 02:26:00,69.9,67.5,30.09,East,101,1.0,1.0,92,0.00,,,0.00,0.00,VWS V14.01,2013-09-10 06:26:00,
2013-09-10 02:31:00,69.9,67.8,30.09,East,101,0.0,0.0,93,0.00,,,0.00,0.00,VWS V14.01,2013-09-10 06:31:00,
2013-09-10 02:36:00,69.9,67.8,30.09,East,101,0.0,0.0,93,0.00,,,0.00,0.00,VWS V14.01,2013-09-10 06:36:00,
2013-09-10 02:41:00,69.8,67.7,30.09,East,101,0.0,0.0,93,0.00,,,0.00,0.00,VWS V14.01,2013-09-10 06:41:00,
2013-09-10 02:46:00,69.6,67.5,30.09,East,101,0.0,0.0,93,0.00,,,0.00,0.00,VWS V14.01,2013-09-10 06:46:00,
2013-09-10 02:51:00,69.6,67.5,30.09,East,101,0.0,0.0,93,0.00,,,0.00,0.00,VWS V14.01,2013-09-10 06:51:00,
2013-09-10 02:56:00,69.4,67.3,30.09,East,101,0.0,0.0,93,0.00,,,0.00,0.00,VWS V14.01,2013-09-10 06:56:00,
2013-09-10 03:01:00,69.4,67.3,30.09,East,101,0.0,0.0,93,0.00,,,0.00,0.00,VWS V14.01,2013-09-10 07:01:00,
2013-09-10 03:06:00,69.4,67.3,30.09,East,101,0.0,0.0,93,0.00,,,0.00,0.00,VWS V14.01,2013-09-10 07:06:00,
2013-09-10 03:11:00,69.4,67.3,30.09,East,101,0.0,0.0,93,0.00,,,0.00,0.00,VWS V14.01,2013-09-10 07:11:00,
2013-09-10 03:16:00,69.4,67.3,30.09,East,101,0.0,0.0,93,0.00,,,0.00,0.00,VWS V14.01,2013-09-10 07:16:00,
2013-09-10 03:21:00,69.1,67.0,30.09,East,101,0.0,0.0,93,0.00,,,0.00,0.00,VWS V14.01,2013-09-10 07:21:00,
2013-09-10 03:26:00,69.1,67.3,30.09,East,101,0.0,0.0,94,0.00,,,0.00,0.00,VWS V14.01,2013-09-10 07:26:00,
2013-09-10 03:31:00,69.1,67.3,30.09,East,101,0.0,0.0,94,0.00,,,0.00,0.00,VWS V14.01,2013-09-10 07:31:00,
2013-09-10 03:36:00,68.9,67.1,30.09,East,101,0.0,0.0,94,0.00,,,0.00,0.00,VWS V14.01,2013-09-10 07:36:00,
2013-09-10 03:41:00,68.9,67.1,30.09,East,101,0.0,0.0,94,0.00,,,0.00,0.00,VWS V14.01,2013-09-10 07:41:00,
2013-09-10 03:46:00,68.8,67.0,30.09,East,101,0.0,0.0,94,0.00,,,0.00,0.00,VWS V14.01,2013-09-10 07:46:00,
2013-09-10 03:51:00,68.6,66.8,30.09,East,101,0.0,0.0,94,0.00,,,0.00,0.00,VWS V14.01,2013-09-10 07:51:00,
2013-09-10 03:56:00,68.8,67.0,30.09,East,101,0.0,0.0,94,0.00,,,0.00,0.00,VWS V14.01,2013-09-10 07:56:00,
2013-09-10 04:01:00,68.8,67.0,30.09,East,101,0.0,0.0,94,0.00,,,0.00,0.00,VWS V14.01,2013-09-10 08:01:00,
2013-09-10 04:06:00,68.8,67.0,30.09,East,101,0.0,0.0,94,0.00,,,0.00,0.00,VWS V14.01,2013-09-10 08:06:00,
2013-09-10 04:11:00,68.8,67.0,30.09,East,101,0.0,0.0,94,0.00,,,0.00,0.00,VWS V14.01,2013-09-10 08:11:00,
2013-09-10 04:16:00,68.8,67.0,30.09,East,101,0.0,0.0,94,0.00,,,0.00,0.00,VWS V14.01,2013-09-10 08:16:00,
2013-09-10 04:21:00,68.4,66.6,30.09,East,101,0.0,0.0,94,0.00,,,0.00,0.00,VWS V14.01,2013-09-10 08:21:00,
2013-09-10 04:26:00,68.3,66.5,30.09,East,101,0.0,0.0,94,0.00,,,0.00,0.00,VWS V14.01,2013-09-10 08:26:00,
2013-09-10 04:31:00,68.1,66.3,30.09,East,101,0.0,0.0,94,0.00,,,0.00,0.00,VWS V14.01,2013-09-10 08:31:00,
2013-09-10 04:36:00,67.9,66.1,30.09,East,101,0.0,0.0,94,0.00,,,0.00,0.00,VWS V14.01,2013-09-10 08:36:00,
2013-09-10 04:41:00,67.9,66.1,30.09,East,101,0.0,0.0,94,0.00,,,0.00,0.00,VWS V14.01,2013-09-10 08:41:00,
2013-09-10 04:46:00,67.8,66.3,30.09,East,101,0.0,0.0,95,0.00,,,0.00,0.00,VWS V14.01,2013-09-10 08:46:00,
2013-09-10 04:51:00,67.8,66.3,30.09,East,101,0.0,0.0,95,0.00,,,0.00,0.00,VWS V14.01,2013-09-10 08:51:00,
2013-09-10 04:56:00,67.8,66.3,30.09,East,101,0.0,0.0,95,0.00,,,0.00,0.00,VWS V14.01,2013-09-10 08:56:00,
2013-09-10 05:01:00,67.8,66.3,30.10,East,101,0.0,0.0,95,0.00,,,0.00,0.00,VWS V14.01,2013-09-10 09:01:00,
2013-09-10 05:06:00,67.6,66.1,30.10,East,101,0.0,0.0,95,0.00,,,0.00,0.00,VWS V14.01,2013-09-10 09:06:00,
2013-09-10 05:11:00,67.6,66.1,30.10,East,101,0.0,0.0,95,0.00,,,0.00,0.00,VWS V14.01,2013-09-10 09:11:00,
2013-09-10 05:16:00,67.6,66.1,30.10,East,101,0.0,0.0,95,0.00,,,0.00,0.00,VWS V14.01,2013-09-10 09:16:00,
2013-09-10 05:21:00,67.4,65.9,30.10,East,101,0.0,0.0,95,0.00,,,0.00,0.00,VWS V14.01,2013-09-10 09:21:00,
2013-09-10 05:26:00,67.3,65.8,30.10,East,101,0.0,0.0,95,0.00,,,0.00,0.00,VWS V14.01,2013-09-10 09:26:00,
2013-09-10 05:31:00,67.3,65.8,30.11,East,101,0.0,0.0,95,0.00,,,0.00,0.00,VWS V14.01,2013-09-10 09:31:00,
2013-09-10 05:36:00,67.3,65.8,30.11,East,101,0.0,0.0,95,0.00,,,0.00,0.00,VWS V14.01,2013-09-10 09:36:00,
2013-09-10 05:41:00,67.4,65.9,30.11,East,101,0.0,0.0,95,0.00,,,0.00,0.00,VWS V14.01,2013-09-10 09:41:00,
2013-09-10 05:46:00,67.6,66.1,30.11,East,101,0.0,0.0,95,0.00,,,0.00,0.00,VWS V14.01,2013-09-10 09:46:00,
2013-09-10 05:51:00,67.8,66.3,30.11,East,101,0.0,0.0,95,0.00,,,0.00,0.00,VWS V14.01,2013-09-10 09:51:00,
2013-09-10 05:56:00,67.8,66.3,30.11,East,101,0.0,0.0,95,0.00,,,0.00,0.00,VWS V14.01,2013-09-10 09:56:00,
2013-09-10 06:01:00,67.6,66.1,30.11,East,101,0.0,0.0,95,0.00,,,0.00,0.00,VWS V14.01,2013-09-10 10:01:00,
2013-09-10 06:06:00,67.6,66.1,30.11,East,101,0.0,0.0,95,0.00,,,0.00,0.00,VWS V14.01,2013-09-10 10:06:00,
2013-09-10 06:11:00,67.6,66.1,30.11,East,101,0.0,0.0,95,0.00,,,0.00,0.00,VWS V14.01,2013-09-10 10:11:00,
2013-09-10 06:16:00,67.6,66.1,30.11,East,101,0.0,0.0,95,0.00,,,0.00,0.00,VWS V14.01,2013-09-10 10:16:00,
2013-09-10 06:21:00,67.1,65.6,30.11,East,101,0.0,0.0,95,0.00,,,0.00,0.00,VWS V14.01,2013-09-10 10:21:00,
2013-09-10 06:26:00,67.1,65.6,30.11,East,101,0.0,0.0,95,0.00,,,0.00,0.00,VWS V14.01,2013-09-10 10:26:00,
2013-09-10 06:31:00,66.9,65.4,30.11,East,101,0.0,0.0,95,0.00,,,0.00,0.00,VWS V14.01,2013-09-10 10:31:00,
2013-09-10 06:36:00,66.8,65.3,30.12,East,101,0.0,0.0,95,0.00,,,0.00,0.00,VWS V14.01,2013-09-10 10:36:00,
2013-09-10 06:41:00,66.6,65.1,30.12,East,101,0.0,0.0,95,0.00,,,0.00,0.00,VWS V14.01,2013-09-10 10:41:00,
2013-09-10 06:46:00,66.6,65.1,30.12,East,101,0.0,0.0,95,0.00,,,0.00,0.00,VWS V14.01,2013-09-10 10:46:00,
2013-09-10 06:51:00,66.4,64.9,30.12,East,101,0.0,0.0,95,0.00,,,0.00,0.00,VWS V14.01,2013-09-10 10:51:00,
2013-09-10 06:56:00,66.4,64.9,30.12,East,101,0.0,0.0,95,0.00,,,0.00,5.00,VWS V14.01,2013-09-10 10:56:00,
2013-09-10 07:01:00,66.4,64.9,30.12,East,101,0.0,0.0,95,0.00,,,0.00,7.00,VWS V14.01,2013-09-10 11:01:00,
2013-09-10 07:06:00,66.4,64.9,30.13,East,101,0.0,0.0,95,0.00,,,0.00,9.00,VWS V14.01,2013-09-10 11:06:00,
2013-09-10 07:11:00,66.4,64.9,30.13,East,101,0.0,0.0,95,0.00,,,0.00,9.00,VWS V14.01,2013-09-10 11:11:00,
2013-09-10 07:16:00,66.4,64.9,30.13,East,101,0.0,0.0,95,0.00,,,0.00,9.00,VWS V14.01,2013-09-10 11:16:00,
2013-09-10 07:21:00,66.4,65.2,30.13,East,101,0.0,0.0,96,0.00,,,0.00,21.00,VWS V14.01,2013-09-10 11:21:00,
2013-09-10 07:26:00,66.6,65.1,30.13,East,101,0.0,0.0,95,0.00,,,0.00,25.00,VWS V14.01,2013-09-10 11:26:00,
2013-09-10 07:31:00,66.6,65.4,30.13,East,101,0.0,0.0,96,0.00,,,0.00,30.00,VWS V14.01,2013-09-10 11:31:00,
2013-09-10 07:36:00,66.9,65.7,30.13,East,101,0.0,0.0,96,0.00,,,0.00,33.00,VWS V14.01,2013-09-10 11:36:00,
2013-09-10 07:41:00,67.1,65.9,30.13,East,101,0.0,0.0,96,0.00,,,0.00,35.00,VWS V14.01,2013-09-10 11:41:00,
2013-09-10 07:46:00,67.3,66.1,30.13,East,101,0.0,0.0,96,0.00,,,0.00,39.00,VWS V14.01,2013-09-10 11:46:00,
2013-09-10 07:51:00,67.4,66.2,30.13,East,101,0.0,0.0,96,0.00,,,0.00,40.00,VWS V14.01,2013-09-10 11:51:00,
2013-09-10 07:56:00,67.8,66.6,30.13,East,101,0.0,0.0,96,0.00,,,0.00,44.00,VWS V14.01,2013-09-10 11:56:00,
2013-09-10 08:01:00,68.1,66.9,30.14,East,101,0.0,0.0,96,0.00,,,0.00,46.00,VWS V14.01,2013-09-10 12:01:00,
2013-09-10 08:06:00,68.4,67.2,30.14,East,101,0.0,0.0,96,0.00,,,0.00,49.00,VWS V14.01,2013-09-10 12:06:00,
2013-09-10 08:11:00,68.6,67.4,30.14,East,101,0.0,0.0,96,0.00,,,0.00,53.00,VWS V14.01,2013-09-10 12:11:00,
2013-09-10 08:16:00,69.1,67.9,30.14,East,101,0.0,0.0,96,0.00,,,0.00,54.00,VWS V14.01,2013-09-10 12:16:00,
2013-09-10 08:21:00,69.4,68.2,30.14,East,101,0.0,0.0,96,0.00,,,0.00,56.00,VWS V14.01,2013-09-10 12:21:00,
2013-09-10 08:26:00,69.8,68.6,30.14,East,101,0.0,0.0,96,0.00,,,0.00,58.00,VWS V14.01,2013-09-10 12:26:00,
2013-09-10 08:31:00,69.9,68.7,30.14,East,101,0.0,0.0,96,0.00,,,0.00,60.00,VWS V14.01,2013-09-10 12:31:00,
2013-09-10 08:36:00,70.3,69.1,30.14,East,101,0.0,0.0,96,0.00,,,0.00,63.00,VWS V14.01,2013-09-10 12:36:00,
2013-09-10 08:41:00,70.6,69.4,30.14,East,101,0.0,0.0,96,0.00,,,0.00,67.00,VWS V14.01,2013-09-10 12:41:00,
2013-09-10 08:46:00,70.9,69.7,30.14,East,101,0.0,0.0,96,0.00,,,0.00,69.00,VWS V14.01,2013-09-10 12:46:00,
2013-09-10 08:51:00,71.3,70.1,30.14,East,101,0.0,0.0,96,0.00,,,0.00,70.00,VWS V14.01,2013-09-10 12:51:00,
2013-09-10 08:56:00,71.8,70.6,30.14,East,101,0.0,0.0,96,0.00,,,0.00,74.00,VWS V14.01,2013-09-10 12:56:00,
2013-09-10 09:01:00,72.1,70.9,30.14,East,101,0.0,0.0,96,0.00,,,0.00,76.00,VWS V14.01,2013-09-10 13:01:00,
2013-09-10 09:06:00,72.7,71.5,30.14,East,101,0.0,0.0,96,0.00,,,0.00,79.00,VWS V14.01,2013-09-10 13:06:00,
2013-09-10 09:11:00,73.0,71.8,30.14,East,101,0.0,0.0,96,0.00,,,0.00,84.00,VWS V14.01,2013-09-10 13:11:00,
2013-09-10 09:16:00,73.3,71.8,30.15,East,101,0.0,0.0,95,0.00,,,0.00,90.00,VWS V14.01,2013-09-10 13:16:00,
2013-09-10 09:21:00,73.7,72.2,30.15,NNW,328,0.0,0.0,95,0.00,,,0.00,250.00,VWS V14.01,2013-09-10 13:21:00,
2013-09-10 09:26:00,74.2,72.4,30.15,SSE,162,0.0,0.0,94,0.00,,,0.00,288.00,VWS V14.01,2013-09-10 13:26:00,
2013-09-10 09:31:00,74.6,72.4,30.15,SSE,162,0.0,0.0,93,0.00,,,0.00,390.00,VWS V14.01,2013-09-10 13:31:00,
2013-09-10 09:36:00,75.1,72.0,30.15,SW,229,0.0,0.0,90,0.00,,,0.00,417.00,VWS V14.01,2013-09-10 13:36:00,
2013-09-10 09:41:00,75.6,71.5,30.15,SW,229,0.0,0.0,87,0.00,,,0.00,454.00,VWS V14.01,2013-09-10 13:41:00,
2013-09-10 09:46:00,76.7,71.2,30.15,WSW,240,0.0,0.0,83,0.00,,,0.00,475.00,VWS V14.01,2013-09-10 13:46:00,
2013-09-10 09:51:00,77.4,70.4,30.15,WNW,296,0.0,0.0,79,0.00,,,0.00,480.00,VWS V14.01,2013-09-10 13:51:00,
2013-09-10 09:56:00,78.3,70.5,30.15,NNW,343,0.0,0.0,77,0.00,,,0.00,503.00,VWS V14.01,2013-09-10 13:56:00,
2013-09-10 10:01:00,79.0,70.0,30.15,NW,308,0.0,0.0,74,0.00,,,0.00,510.00,VWS V14.01,2013-09-10 14:01:00,
2013-09-10 10:06:00,79.8,70.0,30.15,WSW,249,0.0,0.0,72,0.00,,,0.00,526.00,VWS V14.01,2013-09-10 14:06:00,
2013-09-10 10:11:00,80.9,70.6,30.15,WSW,250,0.0,0.0,71,0.00,,,0.00,550.00,VWS V14.01,2013-09-10 14:11:00,
2013-09-10 10:16:00,81.2,69.6,30.15,NNW,348,0.0,0.0,68,0.00,,,0.00,564.00,VWS V14.01,2013-09-10 14:16:00,
2013-09-10 10:21:00,81.8,69.8,30.15,NNW,327,4.0,5.0,67,0.00,,,0.00,580.00,VWS V14.01,2013-09-10 14:21:00,
2013-09-10 10:26:00,82.4,69.0,30.15,West,266,5.0,5.0,64,0.00,,,0.00,587.00,VWS V14.01,2013-09-10 14:26:00,
2013-09-10 10:31:00,83.0,69.1,30.15,NNW,334,0.0,0.0,63,0.00,,,0.00,598.00,VWS V14.01,2013-09-10 14:31:00,
2013-09-10 10:36:00,83.8,68.9,30.15,NNW,328,0.0,4.0,61,0.00,,,0.00,613.00,VWS V14.01,2013-09-10 14:36:00,
2013-09-10 10:41:00,84.1,68.2,30.15,West,277,0.0,4.0,59,0.00,,,0.00,633.00,VWS V14.01,2013-09-10 14:41:00,
2013-09-10 10:46:00,84.5,68.1,30.15,WNW,287,0.0,0.0,58,0.00,,,0.00,643.00,VWS V14.01,2013-09-10 14:46:00,
2013-09-10 10:51:00,84.7,68.8,30.15,WSW,248,0.0,0.0,59,0.00,,,0.00,656.00,VWS V14.01,2013-09-10 14:51:00,
2013-09-10 10:56:00,85.1,68.7,30.15,WSW,248,0.0,1.0,58,0.00,,,0.00,666.00,VWS V14.01,2013-09-10 14:56:00,
2013-09-10 11:01:00,85.3,68.9,30.15,WNW,303,0.0,2.0,58,0.00,,,0.00,679.00,VWS V14.01,2013-09-10 15:01:00,
2013-09-10 11:06:00,85.5,69.1,30.15,WNW,289,0.0,0.0,58,0.00,,,0.00,677.00,VWS V14.01,2013-09-10 15:06:00,
2013-09-10 11:11:00,85.5,69.1,30.15,WNW,289,0.0,0.0,58,0.00,,,0.00,677.00,VWS V14.01,2013-09-10 15:11:00,
2013-09-10 11:16:00,85.5,69.1,30.15,WNW,289,0.0,0.0,58,0.00,,,0.00,677.00,VWS V14.01,2013-09-10 15:16:00,
2013-09-10 11:21:00,86.5,68.4,30.15,NW,309,0.0,0.0,55,0.00,,,0.00,715.00,VWS V14.01,2013-09-10 15:21:00,
2013-09-10 11:26:00,87.0,68.4,30.15,NW,319,2.0,4.0,54,0.00,,,0.00,722.00,VWS V14.01,2013-09-10 15:26:00,
2013-09-10 11:31:00,87.0,68.4,30.15,West,281,0.0,0.0,54,0.00,,,0.00,728.00,VWS V14.01,2013-09-10 15:31:00,
2013-09-10 11:36:00,87.0,66.7,30.15,NNW,340,1.0,5.0,51,0.00,,,0.00,740.00,VWS V14.01,2013-09-10 15:36:00,
2013-09-10 11:41:00,87.2,66.9,30.15,North,0,0.0,0.0,51,0.00,,,0.00,749.00,VWS V14.01,2013-09-10 15:41:00,
2013-09-10 11:46:00,87.6,67.2,30.15,WNW,283,0.0,0.0,51,0.00,,,0.00,763.00,VWS V14.01,2013-09-10 15:46:00,
2013-09-10 11:51:00,87.6,68.4,30.15,North,358,2.0,2.0,53,0.00,,,0.00,772.00,VWS V14.01,2013-09-10 15:51:00,
2013-09-10 11:56:00,88.0,66.5,30.15,WSW,253,0.0,0.0,49,0.00,,,0.00,784.00,VWS V14.01,2013-09-10 15:56:00,
2013-09-10 12:01:00,88.0,67.1,30.15,SSW,196,0.0,4.0,50,0.00,,,0.00,786.00,VWS V14.01,2013-09-10 16:01:00,
2013-09-10 12:06:00,88.0,67.1,30.14,South,184,0.0,1.0,50,0.00,,,0.00,789.00,VWS V14.01,2013-09-10 16:06:00,
2013-09-10 12:11:00,88.0,67.1,30.14,South,184,0.0,1.0,50,0.00,,,0.00,789.00,VWS V14.01,2013-09-10 16:11:00,
2013-09-10 12:16:00,88.0,67.1,30.14,South,184,0.0,1.0,50,0.00,,,0.00,789.00,VWS V14.01,2013-09-10 16:16:00,
2013-09-10 12:21:00,89.0,68.0,30.14,NNW,345,0.0,0.0,50,0.00,,,0.00,814.00,VWS V14.01,2013-09-10 16:21:00,
2013-09-10 12:26:00,89.3,67.1,30.14,SE,141,0.0,0.0,48,0.00,,,0.00,821.00,VWS V14.01,2013-09-10 16:26:00,
2013-09-10 12:31:00,89.7,68.6,30.14,SE,141,0.0,0.0,50,0.00,,,0.00,821.00,VWS V14.01,2013-09-10 16:31:00,
2013-09-10 12:36:00,90.1,66.6,30.14,South,176,0.0,0.0,46,0.00,,,0.00,828.00,VWS V14.01,2013-09-10 16:36:00,
2013-09-10 12:41:00,90.1,65.9,30.14,West,261,4.0,4.0,45,0.00,,,0.00,844.00,VWS V14.01,2013-09-10 16:41:00,
2013-09-10 12:46:00,90.1,66.6,30.14,SSW,211,0.0,2.0,46,0.00,,,0.00,847.00,VWS V14.01,2013-09-10 16:46:00,
2013-09-10 12:51:00,90.3,66.1,30.14,SSW,211,0.0,0.0,45,0.00,,,0.00,853.00,VWS V14.01,2013-09-10 16:51:00,
2013-09-10 12:56:00,91.0,66.7,30.14,WSW,248,3.0,3.0,45,0.00,,,0.00,861.00,VWS V14.01,2013-09-10 16:56:00,
2013-09-10 13:01:00,91.0,67.4,30.14,West,273,6.0,6.0,46,0.00,,,0.00,831.00,VWS V14.01,2013-09-10 17:01:00,
2013-09-10 13:06:00,90.7,65.8,30.14,WSW,255,0.0,4.0,44,0.00,,,0.00,526.00,VWS V14.01,2013-09-10 17:06:00,
2013-09-10 13:11:00,90.7,65.8,30.14,WSW,255,0.0,4.0,44,0.00,,,0.00,526.00,VWS V14.01,2013-09-10 17:11:00,
2013-09-10 13:16:00,90.7,65.8,30.14,WSW,255,0.0,4.0,44,0.00,,,0.00,526.00,VWS V14.01,2013-09-10 17:16:00,
2013-09-10 13:21:00,91.0,66.7,30.13,SSW,205,0.0,0.0,45,0.00,,,0.00,849.00,VWS V14.01,2013-09-10 17:21:00,
2013-09-10 13:26:00,91.2,66.3,30.13,NW,314,0.0,0.0,44,0.00,,,0.00,858.00,VWS V14.01,2013-09-10 17:26:00,
2013-09-10 13:31:00,91.2,64.9,30.13,North,351,4.0,4.0,42,0.00,,,0.00,863.00,VWS V14.01,2013-09-10 17:31:00,
2013-09-10 13:36:00,91.2,66.3,30.13,North,351,0.0,0.0,44,0.00,,,0.00,817.00,VWS V14.01,2013-09-10 17:36:00,
2013-09-10 13:41:00,91.4,67.1,30.13,North,351,0.0,0.0,45,0.00,,,0.00,809.00,VWS V14.01,2013-09-10 17:41:00,
2013-09-10 13:46:00,91.8,66.1,30.13,West,276,0.0,0.0,43,0.00,,,0.00,835.00,VWS V14.01,2013-09-10 17:46:00,
2013-09-10 13:51:00,92.1,69.0,30.12,NW,314,0.0,0.0,47,0.00,,,0.00,838.00,VWS V14.01,2013-09-10 17:51:00,
2013-09-10 13:56:00,92.1,66.4,30.12,WSW,252,1.0,1.0,43,0.00,,,0.00,830.00,VWS V14.01,2013-09-10 17:56:00,
2013-09-10 14:01:00,91.8,65.5,30.12,SE,128,0.0,1.0,42,0.00,,,0.00,853.00,VWS V14.01,2013-09-10 18:01:00,
2013-09-10 14:06:00,91.8,66.1,30.12,South,188,0.0,0.0,43,0.00,,,0.00,833.00,VWS V14.01,2013-09-10 18:06:00,
2013-09-10 14:11:00,91.8,66.1,30.12,South,188,0.0,0.0,43,0.00,,,0.00,833.00,VWS V14.01,2013-09-10 18:11:00,
2013-09-10 14:16:00,91.8,66.1,30.12,South,188,0.0,0.0,43,0.00,,,0.00,833.00,VWS V14.01,2013-09-10 18:16:00,
2013-09-10 14:21:00,92.3,64.5,30.11,WSW,252,0.0,6.0,40,0.00,,,0.00,828.00,VWS V14.01,2013-09-10 18:21:00,
2013-09-10 14:26:00,92.3,63.8,30.11,WSW,256,0.0,0.0,39,0.00,,,0.00,816.00,VWS V14.01,2013-09-10 18:26:00,
2013-09-10 14:31:00,92.3,63.8,30.11,ESE,104,0.0,0.0,39,0.00,,,0.00,812.00,VWS V14.01,2013-09-10 18:31:00,
2013-09-10 14:36:00,92.5,64.7,30.11,ESE,116,0.0,0.0,40,0.00,,,0.00,824.00,VWS V14.01,2013-09-10 18:36:00,
2013-09-10 14:41:00,92.5,64.7,30.11,East,89,0.0,0.0,40,0.00,,,0.00,160.00,VWS V14.01,2013-09-10 18:41:00,
2013-09-10 14:46:00,92.1,65.7,30.11,East,90,0.0,0.0,42,0.00,,,0.00,181.00,VWS V14.01,2013-09-10 18:46:00,
2013-09-10 14:51:00,91.8,66.8,30.11,East,90,0.0,0.0,44,0.00,,,0.00,800.00,VWS V14.01,2013-09-10 18:51:00,
2013-09-10 14:56:00,92.1,66.4,30.11,South,169,0.0,0.0,43,0.00,,,0.00,805.00,VWS V14.01,2013-09-10 18:56:00,
2013-09-10 15:01:00,92.5,65.4,30.10,South,175,0.0,0.0,41,0.00,,,0.00,788.00,VWS V14.01,2013-09-10 19:01:00,
2013-09-10 15:06:00,92.7,64.9,30.10,SE,134,0.0,0.0,40,0.00,,,0.00,779.00,VWS V14.01,2013-09-10 19:06:00,
2013-09-10 15:11:00,92.7,64.9,30.10,SE,134,0.0,0.0,40,0.00,,,0.00,779.00,VWS V14.01,2013-09-10 19:11:00,
2013-09-10 15:16:00,92.7,64.9,30.10,SE,134,0.0,0.0,40,0.00,,,0.00,779.00,VWS V14.01,2013-09-10 19:16:00,
2013-09-10 15:21:00,93.8,65.1,30.09,SW,222,0.0,0.0,39,0.00,,,0.00,717.00,VWS V14.01,2013-09-10 19:21:00,
2013-09-10 15:26:00,94.3,65.6,30.09,NW,315,0.0,1.0,39,0.00,,,0.00,722.00,VWS V14.01,2013-09-10 19:26:00,
2013-09-10 15:31:00,94.5,65.7,30.09,WSW,257,0.0,4.0,39,0.00,,,0.00,701.00,VWS V14.01,2013-09-10 19:31:00,
2013-09-10 15:36:00,93.6,64.9,30.09,SSE,158,0.0,0.0,39,0.00,,,0.00,708.00,VWS V14.01,2013-09-10 19:36:00,
2013-09-10 15:41:00,92.7,65.6,30.09,SE,139,0.0,0.0,41,0.00,,,0.00,661.00,VWS V14.01,2013-09-10 19:41:00,
2013-09-10 15:46:00,92.5,65.4,30.09,SE,144,0.0,1.0,41,0.00,,,0.00,654.00,VWS V14.01,2013-09-10 19:46:00,
2013-09-10 15:51:00,92.9,65.0,30.09,ENE,72,0.0,0.0,40,0.00,,,0.00,661.00,VWS V14.01,2013-09-10 19:51:00,
2013-09-10 15:56:00,93.2,66.0,30.09,East,88,0.0,0.0,41,0.00,,,0.00,649.00,VWS V14.01,2013-09-10 19:56:00,
2013-09-10 16:01:00,93.6,64.9,30.09,SE,129,1.0,1.0,39,0.00,,,0.00,631.00,VWS V14.01,2013-09-10 20:01:00,
2013-09-10 16:06:00,93.6,64.9,30.08,SE,137,1.0,1.0,39,0.00,,,0.00,621.00,VWS V14.01,2013-09-10 20:06:00,
2013-09-10 16:11:00,93.6,64.9,30.08,SE,137,1.0,1.0,39,0.00,,,0.00,621.00,VWS V14.01,2013-09-10 20:11:00,
2013-09-10 16:16:00,93.6,64.9,30.08,SE,137,1.0,1.0,39,0.00,,,0.00,621.00,VWS V14.01,2013-09-10 20:16:00,
2013-09-10 16:21:00,92.9,64.3,30.07,South,188,3.0,3.0,39,0.00,,,0.00,566.00,VWS V14.01,2013-09-10 20:21:00,
2013-09-10 16:26:00,92.7,64.1,30.07,South,173,0.0,2.0,39,0.00,,,0.00,550.00,VWS V14.01,2013-09-10 20:26:00,
2013-09-10 16:31:00,92.9,63.6,30.07,South,172,0.0,0.0,38,0.00,,,0.00,541.00,VWS V14.01,2013-09-10 20:31:00,
2013-09-10 16:36:00,92.9,64.3,30.06,WSW,257,0.0,1.0,39,0.00,,,0.00,519.00,VWS V14.01,2013-09-10 20:36:00,
2013-09-10 16:41:00,93.2,66.0,30.06,SSE,148,1.0,1.0,41,0.00,,,0.00,461.00,VWS V14.01,2013-09-10 20:41:00,
2013-09-10 16:46:00,92.3,65.2,30.07,SSE,163,5.0,5.0,41,0.00,,,0.00,102.00,VWS V14.01,2013-09-10 20:46:00,
2013-09-10 16:51:00,91.6,65.3,30.07,South,185,4.0,4.0,42,0.00,,,0.00,90.00,VWS V14.01,2013-09-10 20:51:00,
2013-09-10 16:56:00,90.7,65.8,30.07,SSW,193,3.0,5.0,44,0.00,,,0.00,84.00,VWS V14.01,2013-09-10 20:56:00,
2013-09-10 17:01:00,89.9,65.1,30.06,South,190,0.0,4.0,44,0.00,,,0.00,83.00,VWS V14.01,2013-09-10 21:01:00,
2013-09-10 17:06:00,89.7,65.6,30.06,South,190,2.0,2.0,45,0.00,,,0.00,84.00,VWS V14.01,2013-09-10 21:06:00,
2013-09-10 17:11:00,89.7,65.6,30.06,South,190,2.0,2.0,45,0.00,,,0.00,84.00,VWS V14.01,2013-09-10 21:11:00,
2013-09-10 17:16:00,89.7,65.6,30.06,South,190,2.0,2.0,45,0.00,,,0.00,84.00,VWS V14.01,2013-09-10 21:16:00,
2013-09-10 17:21:00,88.8,66.0,30.07,SSE,148,0.0,1.0,47,0.00,,,0.00,383.00,VWS V14.01,2013-09-10 21:21:00,
2013-09-10 17:26:00,89.5,66.0,30.07,SSE,149,0.0,2.0,46,0.00,,,0.00,367.00,VWS V14.01,2013-09-10 21:26:00,
2013-09-10 17:31:00,89.9,65.7,30.06,SE,146,0.0,3.0,45,0.00,,,0.00,367.00,VWS V14.01,2013-09-10 21:31:00,
2013-09-10 17:36:00,89.9,65.1,30.06,SE,146,0.0,0.0,44,0.00,,,0.00,360.00,VWS V14.01,2013-09-10 21:36:00,
2013-09-10 17:41:00,90.3,66.1,30.06,ESE,110,0.0,2.0,45,0.00,,,0.00,359.00,VWS V14.01,2013-09-10 21:41:00,
2013-09-10 17:46:00,90.3,66.1,30.06,SSE,147,0.0,0.0,45,0.00,,,0.00,332.00,VWS V14.01,2013-09-10 21:46:00,
2013-09-10 17:51:00,90.1,66.6,30.06,SE,134,4.0,4.0,46,0.00,,,0.00,320.00,VWS V14.01,2013-09-10 21:51:00,
2013-09-10 17:56:00,90.1,65.9,30.06,SSE,162,2.0,2.0,45,0.00,,,0.00,294.00,VWS V14.01,2013-09-10 21:56:00,
2013-09-10 18:01:00,89.9,65.1,30.06,SE,138,0.0,5.0,44,0.00,,,0.00,271.00,VWS V14.01,2013-09-10 22:01:00,
2013-09-10 18:06:00,89.9,65.7,30.06,SE,127,0.0,1.0,45,0.00,,,0.00,258.00,VWS V14.01,2013-09-10 22:06:00,
2013-09-10 18:11:00,89.9,65.7,30.06,SE,127,0.0,1.0,45,0.00,,,0.00,258.00,VWS V14.01,2013-09-10 22:11:00,
2013-09-10 18:16:00,89.9,65.7,30.06,SE,127,0.0,1.0,45,0.00,,,0.00,258.00,VWS V14.01,2013-09-10 22:16:00,
2013-09-10 18:21:00,89.3,65.8,30.06,SE,141,1.0,1.0,46,0.00,,,0.00,155.00,VWS V14.01,2013-09-10 22:21:00,
2013-09-10 18:26:00,89.0,66.2,30.06,South,171,0.0,2.0,47,0.00,,,0.00,134.00,VWS V14.01,2013-09-10 22:26:00,
2013-09-10 18:31:00,88.6,66.4,30.06,SE,133,0.0,0.0,48,0.00,,,0.00,118.00,VWS V14.01,2013-09-10 22:31:00,
2013-09-10 18:36:00,88.2,66.7,30.06,SSE,158,0.0,1.0,49,0.00,,,0.00,79.00,VWS V14.01,2013-09-10 22:36:00,
2013-09-10 18:41:00,87.6,67.2,30.06,SSE,158,0.0,0.0,51,0.00,,,0.00,39.00,VWS V14.01,2013-09-10 22:41:00,
2013-09-10 18:46:00,87.4,68.2,30.06,SE,145,0.0,0.0,53,0.00,,,0.00,33.00,VWS V14.01,2013-09-10 22:46:00,
2013-09-10 18:51:00,86.7,69.7,30.06,SSE,164,0.0,4.0,57,0.00,,,0.00,30.00,VWS V14.01,2013-09-10 22:51:00,
2013-09-10 18:56:00,86.1,67.0,30.06,SSE,167,0.0,2.0,53,0.00,,,0.00,25.00,VWS V14.01,2013-09-10 22:56:00,
2013-09-10 19:01:00,85.9,66.8,30.06,SSE,162,0.0,2.0,53,0.00,,,0.00,21.00,VWS V14.01,2013-09-10 23:01:00,
2013-09-10 19:06:00,85.7,66.6,30.06,SSE,162,0.0,2.0,53,0.00,,,0.00,19.00,VWS V14.01,2013-09-10 23:06:00,
2013-09-10 19:11:00,85.3,67.8,30.06,SSE,162,0.0,0.0,56,0.00,,,0.00,14.00,VWS V14.01,2013-09-10 23:11:00,
2013-09-10 19:16:00,84.9,69.0,30.06,SSE,162,0.0,0.0,59,0.00,,,0.00,12.00,VWS V14.01,2013-09-10 23:16:00,
2013-09-10 19:21:00,84.5,70.1,30.06,SSE,162,0.0,0.0,62,0.00,,,0.00,7.00,VWS V14.01,2013-09-10 23:21:00,
2013-09-10 19:26:00,84.0,70.5,30.06,SSE,162,0.0,0.0,64,0.00,,,0.00,0.00,VWS V14.01,2013-09-10 23:26:00,
2013-09-10 19:31:00,83.4,71.3,30.06,SSE,162,0.0,0.0,67,0.00,,,0.00,0.00,VWS V14.01,2013-09-10 23:31:00,
2013-09-10 19:36:00,82.8,71.2,30.06,SSE,162,0.0,0.0,68,0.00,,,0.00,0.00,VWS V14.01,2013-09-10 23:36:00,
2013-09-10 19:41:00,82.2,70.6,30.06,SSE,162,0.0,0.0,68,0.00,,,0.00,0.00,VWS V14.01,2013-09-10 23:41:00,
2013-09-10 19:46:00,81.6,70.4,30.06,SSE,162,0.0,0.0,69,0.00,,,0.00,0.00,VWS V14.01,2013-09-10 23:46:00,
2013-09-10 19:51:00,81.2,70.5,30.07,SSE,162,0.0,0.0,70,0.00,,,0.00,0.00,VWS V14.01,2013-09-10 23:51:00,
2013-09-10 19:56:00,80.9,70.6,30.07,SSE,162,0.0,0.0,71,0.00,,,0.00,0.00,VWS V14.01,2013-09-10 23:56:00,
2013-09-10 20:01:00,80.3,70.5,30.07,SSE,162,0.0,0.0,72,0.00,,,0.00,0.00,VWS V14.01,2013-09-11 00:01:00,
2013-09-10 20:06:00,80.3,70.5,30.07,SSE,162,0.0,0.0,72,0.00,,,0.00,0.00,VWS V14.01,2013-09-11 00:06:00,
2013-09-10 20:11:00,80.3,70.5,30.07,SSE,162,0.0,0.0,72,0.00,,,0.00,0.00,VWS V14.01,2013-09-11 00:11:00,
2013-09-10 20:16:00,79.4,71.2,30.07,SSE,162,0.0,0.0,76,0.00,,,0.00,0.00,VWS V14.01,2013-09-11 00:16:00,
2013-09-10 20:21:00,79.0,71.2,30.08,SSE,162,0.0,0.0,77,0.00,,,0.00,0.00,VWS V14.01,2013-09-11 00:21:00,
2013-09-10 20:26:00,78.6,71.2,30.08,SSE,162,0.0,0.0,78,0.00,,,0.00,0.00,VWS V14.01,2013-09-11 00:26:00,
2013-09-10 20:31:00,78.5,71.4,30.08,SSE,162,0.0,0.0,79,0.00,,,0.00,0.00,VWS V14.01,2013-09-11 00:31:00,
2013-09-10 20:36:00,78.1,71.4,30.08,SSE,162,0.0,0.0,80,0.00,,,0.00,0.00,VWS V14.01,2013-09-11 00:36:00,
2013-09-10 20:41:00,77.7,71.0,30.08,SSE,162,0.0,0.0,80,0.00,,,0.00,0.00,VWS V14.01,2013-09-11 00:41:00,
2013-09-10 20:46:00,77.4,71.1,30.09,SSE,162,0.0,0.0,81,0.00,,,0.00,0.00,VWS V14.01,2013-09-11 00:46:00,
2013-09-10 20:51:00,77.2,71.3,30.09,SSE,162,0.0,0.0,82,0.00,,,0.00,0.00,VWS V14.01,2013-09-11 00:51:00,
2013-09-10 20:56:00,76.8,70.9,30.09,SSE,162,0.0,0.0,82,0.00,,,0.00,0.00,VWS V14.01,2013-09-11 00:56:00,
2013-09-10 21:01:00,76.7,71.2,30.09,SSE,162,0.0,0.0,83,0.00,,,0.00,0.00,VWS V14.01,2013-09-11 01:01:00,
2013-09-10 21:06:00,76.5,71.0,30.09,SSE,162,0.0,0.0,83,0.00,,,0.00,0.00,VWS V14.01,2013-09-11 01:06:00,
2013-09-10 21:10:00,76.5,71.0,30.09,SSE,162,0.0,0.0,83,0.00,,,0.00,0.00,VWS V14.01,2013-09-11 01:10:00,
2013-09-10 21:15:00,76.5,71.0,30.09,SSE,162,0.0,0.0,83,0.00,,,0.00,0.00,VWS V14.01,2013-09-11 01:15:00,
2013-09-10 21:20:00,75.8,71.0,30.10,SSE,162,0.0,0.0,85,0.00,,,0.00,0.00,VWS V14.01,2013-09-11 01:20:00,
2013-09-10 21:25:00,75.6,70.4,30.10,SSE,162,0.0,0.0,84,0.00,,,0.00,0.00,VWS V14.01,2013-09-11 01:25:00,
2013-09-10 21:30:00,75.4,70.2,30.10,SSE,162,0.0,0.0,84,0.00,,,0.00,0.00,VWS V14.01,2013-09-11 01:30:00,
2013-09-10 21:35:00,75.3,70.1,30.11,SSE,162,0.0,0.0,84,0.00,,,0.00,0.00,VWS V14.01,2013-09-11 01:35:00,
2013-09-10 21:40:00,75.1,70.3,30.11,SSE,162,0.0,0.0,85,0.00,,,0.00,0.00,VWS V14.01,2013-09-11 01:40:00,
2013-09-10 21:45:00,75.1,70.6,30.11,SSE,162,0.0,0.0,86,0.00,,,0.00,0.00,VWS V14.01,2013-09-11 01:45:00,
2013-09-10 21:50:00,74.9,70.8,30.11,SSE,162,0.0,0.0,87,0.00,,,0.00,0.00,VWS V14.01,2013-09-11 01:50:00,
2013-09-10 21:56:00,74.9,70.8,30.11,SSE,162,0.0,0.0,87,0.00,,,0.00,0.00,VWS V14.01,2013-09-11 01:56:00,
2013-09-10 22:01:00,74.7,70.6,30.11,SSE,162,0.0,0.0,87,0.00,,,0.00,0.00,VWS V14.01,2013-09-11 02:01:00,
2013-09-10 22:06:00,74.6,70.5,30.11,SSE,162,0.0,0.0,87,0.00,,,0.00,0.00,VWS V14.01,2013-09-11 02:06:00,
2013-09-10 22:11:00,74.6,70.5,30.11,SSE,162,0.0,0.0,87,0.00,,,0.00,0.00,VWS V14.01,2013-09-11 02:11:00,
2013-09-10 22:16:00,74.6,70.5,30.11,SSE,162,0.0,0.0,87,0.00,,,0.00,0.00,VWS V14.01,2013-09-11 02:16:00,
2013-09-10 22:21:00,74.2,70.4,30.12,SSE,162,0.0,0.0,88,0.00,,,0.00,0.00,VWS V14.01,2013-09-11 02:21:00,
2013-09-10 22:26:00,74.0,70.2,30.12,SSE,162,0.0,0.0,88,0.00,,,0.00,0.00,VWS V14.01,2013-09-11 02:26:00,
2013-09-10 22:31:00,74.0,70.2,30.12,SSE,162,0.0,1.0,88,0.00,,,0.00,0.00,VWS V14.01,2013-09-11 02:31:00,
2013-09-10 22:36:00,74.0,70.6,30.12,SSE,162,0.0,0.0,89,0.00,,,0.00,0.00,VWS V14.01,2013-09-11 02:36:00,
2013-09-10 22:41:00,73.9,70.1,30.12,SSE,162,0.0,0.0,88,0.00,,,0.00,0.00,VWS V14.01,2013-09-11 02:41:00,
2013-09-10 22:46:00,73.9,70.1,30.12,SSE,162,0.0,0.0,88,0.00,,,0.00,0.00,VWS V14.01,2013-09-11 02:46:00,
2013-09-10 22:51:00,73.9,69.1,30.12,SSE,162,0.0,0.0,85,0.00,,,0.00,0.00,VWS V14.01,2013-09-11 02:51:00,
2013-09-10 22:56:00,74.0,68.9,30.12,SSE,162,0.0,0.0,84,0.00,,,0.00,0.00,VWS V14.01,2013-09-11 02:56:00,
2013-09-10 23:01:00,74.2,68.7,30.12,SSE,162,0.0,0.0,83,0.00,,,0.00,0.00,VWS V14.01,2013-09-11 03:01:00,
2013-09-10 23:06:00,74.4,68.9,30.12,SSE,162,0.0,0.0,83,0.00,,,0.00,0.00,VWS V14.01,2013-09-11 03:06:00,
2013-09-10 23:11:00,74.4,68.9,30.12,SSE,162,0.0,0.0,83,0.00,,,0.00,0.00,VWS V14.01,2013-09-11 03:11:00,
2013-09-10 23:16:00,74.4,68.9,30.12,SSE,162,0.0,0.0,83,0.00,,,0.00,0.00,VWS V14.01,2013-09-11 03:16:00,
2013-09-10 23:21:00,74.9,68.7,30.12,SSE,162,0.0,0.0,81,0.00,,,0.00,0.00,VWS V14.01,2013-09-11 03:21:00,
2013-09-10 23:26:00,74.9,68.3,30.12,SSW,201,0.0,0.0,80,0.00,,,0.00,0.00,VWS V14.01,2013-09-11 03:26:00,
2013-09-10 23:31:00,75.1,68.5,30.12,SSW,201,0.0,0.0,80,0.00,,,0.00,0.00,VWS V14.01,2013-09-11 03:31:00,
2013-09-10 23:36:00,75.1,68.5,30.12,SSW,201,3.0,3.0,80,0.00,,,0.00,0.00,VWS V14.01,2013-09-11 03:36:00,
2013-09-10 23:41:00,75.1,68.5,30.12,SSW,201,0.0,0.0,80,0.00,,,0.00,0.00,VWS V14.01,2013-09-11 03:41:00,
2013-09-10 23:46:00,75.1,69.2,30.12,SSW,201,0.0,0.0,82,0.00,,,0.00,0.00,VWS V14.01,2013-09-11 03:46:00,
2013-09-10 23:51:00,75.1,69.6,30.13,SSW,201,0.0,0.0,83,0.00,,,0.00,0.00,VWS V14.01,2013-09-11 03:51:00,
2013-09-10 23:56:00,74.9,69.7,30.13,SSW,201,0.0,0.0,84,0.00,,,0.00,0.00,VWS V14.01,2013-09-11 03:56:00,